Home > Weather > Vilnius > Past weeks

Flag for Lithuania Past Weather in Vilnius, Lithuania — Yesterday and Last 2 Weeks

Now
63 °F

Fog.


Feels Like: 63 °F
Forecast: 62 / 80 °F
Wind: 5 mph from Northwest

Location: Vilnius Airport

Current Time: Jul 24, 2016 at 9:55:37 AM

Latest Report: Jul 24, 2016 at 9:20 AM


Visibility: 1 mi

Pressure: 30.12 "Hg

Humidity: 100%

Dew Point: 63 °F

Location of VilniusLocation

Past Weather in Vilnius — Graph

°F

Vilnius Temperature Yesterday

Maximum temperature yesterday: 75 °F (at 4:50 PM)
Minimum temperature yesterday: 61 °F (at 12:20 AM)
Average temperature yesterday: 67 °F

High & Low Weather Summary for the Past Weeks

 TemperatureHumidityPressure
High82 °F (Jul 11, 1:50 PM)100% (Jul 11, 9:50 PM)30.15 "Hg (Jul 11, 9:50 PM)
Low50 °F (Jul 14, 3:20 AM)45% (Jul 11, 3:50 PM)29.62 "Hg (Jul 15, 1:50 AM)
Average63 °F81%29.90 "Hg
* Reported Jul 9 8:20 AM — Jul 24 8:20 AM, Vilnius, Weather by CustomWeather, © 2016

Note: Actual official high and low records may vary slightly from our data, if they occured in-between our weather recording intervals... More about our weather records

Advertising

Vilnius Weather History for the Previous 24 Hours

Scroll right to see more
 ConditionsComfort  
Time TempWeatherWind HumidityBarometerVisibility
8:20 AM
Sun, Jul 24
63 °FFog.6 mph100%30.09 "Hg1 mi
7:50 AM63 °FFog.7 mph94%30.09 "Hg1 mi
7:20 AM63 °FFog.8 mph94%30.09 "Hg1 mi
6:51 AM63 °FFog.7 mph94%30.09 "Hg0 mi
6:20 AM63 °FFog.7 mph94%30.09 "Hg3 mi
5:50 AM61 °FFog.3 mph100%30.09 "Hg3 mi
5:20 AM59 °FFog.3 mph100%30.09 "Hg3 mi
4:50 AM61 °FFog.3 mph94%30.09 "Hg3 mi
4:20 AM61 °FFog.3 mph100%30.09 "Hg3 mi
3:50 AM61 °FPassing clouds.1 mph94%30.09 "Hg5 mi
3:20 AM63 °FPassing clouds.5 mph94%30.09 "Hg5 mi
2:50 AM63 °FClear.7 mph94%30.07 "Hg5 mi
2:20 AM63 °FClear.3 mph94%30.07 "Hg5 mi
1:50 AM61 °FClear.2 mph100%30.07 "Hg5 mi
1:20 AM63 °FClear.3 mph94%30.07 "Hg5 mi
12:50 AM63 °FClear.6 mph94%30.07 "Hg5 mi
12:20 AM63 °FClear.8 mph94%30.07 "Hg10 mi
11:50 PM
Sat, Jul 23
64 °FClear.5 mph88%30.07 "Hg10 mi
11:20 PM66 °FPassing clouds.8 mph88%30.07 "HgN/A
10:50 PM68 °FPartly cloudy.8 mph83%30.07 "HgN/A
10:20 PM68 °FBroken clouds.7 mph83%30.07 "HgN/A
9:50 PM68 °FPartly sunny.7 mph83%30.07 "HgN/A
9:20 PM68 °FPartly sunny.6 mph83%30.07 "HgN/A
8:50 PM68 °FBroken clouds.6 mph83%30.07 "HgN/A
8:20 PM70 °FBroken clouds.6 mph83%30.04 "HgN/A
7:50 PM68 °FPartly sunny.6 mph88%30.04 "HgN/A
7:20 PM68 °FBroken clouds.6 mph88%30.04 "HgN/A
6:50 PM68 °FScattered showers. Broken clouds.10 mph88%30.04 "Hg5 mi
6:20 PM70 °FSprinkles. Broken clouds.9 mph83%30.04 "Hg4 mi
5:50 PM68 °FSprinkles. Partly sunny.8 mph88%30.04 "Hg4 mi
5:20 PM70 °FScattered showers. Broken clouds.8 mph78%30.04 "HgN/A
4:50 PM75 °FBroken clouds.12 mph61%30.04 "HgN/A
4:20 PM73 °FBroken clouds.7 mph65%30.04 "HgN/A
3:50 PM73 °FBroken clouds.8 mph65%30.04 "HgN/A
3:20 PM72 °FBroken clouds.9 mph73%30.04 "HgN/A
2:50 PM72 °FBroken clouds.12 mph73%30.04 "HgN/A
2:20 PM72 °FBroken clouds.9 mph69%30.04 "HgN/A
1:50 PM72 °FBroken clouds.8 mph73%30.04 "HgN/A
1:20 PM72 °FBroken clouds.8 mph73%30.04 "HgN/A
12:50 PM70 °FBroken clouds.8 mph78%30.04 "HgN/A
12:20 PM70 °FBroken clouds.8 mph73%30.04 "HgN/A
11:50 AM70 °FBroken clouds.9 mph78%30.04 "HgN/A
11:20 AM68 °FBroken clouds.10 mph83%30.04 "HgN/A
10:50 AM68 °FPartly sunny.10 mph83%30.01 "HgN/A
10:20 AM68 °FPartly sunny.7 mph83%30.01 "HgN/A
9:50 AM66 °FMostly cloudy.7 mph88%30.01 "HgN/A
9:20 AM66 °FSprinkles. Mostly cloudy.7 mph88%30.01 "Hg4 mi
Weather by CustomWeather, © 2016

See weather overviewHow to use our weather pages